Zurück zum Katalog

STARLINK-35246

AktivKommunikationSSO
NORAD 65660·PAYLOAD·🇺🇸 United States

Gestartet Sep 19, 2025 von Vandenberg Space Force Base

Loading…

Nächste Überflüge (nächste 24 Stunden)

TLE

AktuellSource: CelesTrak SupGP

Epoche: Sep 14, 2026, 23:02 UTC

1 65660C 25211J   26257.96020833  .00027349  00000+0  84906-3 0  2578
2 65660  97.2832 298.2790 0001109  88.4779 313.0231 15.33423251    10

Verfolge STARLINK-35246 in Echtzeit mit AllMySat

Download on the App Store